Regional Weather Roundup
Issued by NWS Memphis, TN

Home | Current Version | Previous Version | Text Only | Print | Product List | Glossary On
Versions: 1 2 3 4 5 6 7 8 9 10 11 12 13 14 15 16 17 18 19 20 21 22 23 24 25 26 27 28 29 30 31 32 33 34 35 36 37 38 39 40 41 42 43 44 45 46 47 48 49 50
000
ASUS44 KMEG 262310
RWRMEG
MEMPHIS CWA HOURLY WEATHER ROUNDUP
NATIONAL WEATHER SERVICE MEMPHIS TN
600 PM CDT THU MAR 26 2015

...WEST TENNESSEE...

CITY           SKY/WX    TMP DP  RH WIND       PRES   REMARKS
MEMPHIS INTL   CLOUDY    48  42  80 N15       29.99R
NWS MEMPHIS      N/A     47 N/A N/A MISG        N/A
JACKSON        CLOUDY    47  41  80 N10       29.98R
LEXINGTON      CLOUDY    45  41  87 N7        29.95S
SAVANNAH       CLOUDY    45  45 100 N9        29.95R
DYERSBURG      CLOUDY    45  28  53 N14       30.02S
UNION CITY     PTSUNNY   43  43 100 N14       30.00R
PARIS          CLOUDY    43  39  87 N8        29.99R


...EASTERN ARKANSAS...

CITY           SKY/WX    TMP DP  RH WIND       PRES   REMARKS
JONESBORO      MOSUNNY   50  38  63 N10       30.02S
WEST MEMPHIS   CLOUDY    48  43  82 N13       30.01R
BATESVILLE     SUNNY     55  36  47 NW3       30.03R
NEWPORT        MOSUNNY   53  37  54 N10G23    30.05R
BLYTHEVILLE    CLOUDY    47  41  80 N15       30.02S
SEARCY         SUNNY     55  38  52 NW7       30.05R
STUTTGART      CLOUDY    52  43  71 N12       30.03S
PINE BLUFF     CLOUDY    52  45  77 N12       30.02S
MONTICELLO     CLOUDY    51  45  79 VRB7      29.99R


...NORTH MISSISSIPPI...

CITY           SKY/WX    TMP DP  RH WIND       PRES   REMARKS
TUPELO         CLOUDY    50  44  80 N18G25    29.92R
OXFORD         CLOUDY    45  43  93 N8G20     29.98R
OLIVE BRANCH   RAIN      45  45 100 N9        30.00R FOG
TUNICA         LGT RAIN  46  45  93 N13       30.00S
CLARKSDALE       N/A     48  46  93 N23       29.99R
CORINTH        HVY RAIN  46  43  87 N9        29.95R
GREENWOOD      CLOUDY    53  44  71 N15       29.92S
STARKVILLE     CLOUDY    59  52  77 N6        29.87R
GOLDEN TRIANGL LGT RAIN  59  52  77 N18G28    29.85R


...SOUTHEAST MISSOURI...

CITY           SKY/WX    TMP DP  RH WIND       PRES   REMARKS
WEST PLAINS    SUNNY     52  27  38 MISG      30.03R
POPLAR BLUFF   SUNNY     51  33  50 NE8       30.01S
CAPE GIRARDEAU SUNNY     48  34  58 N13       30.03R


...NORTHWEST ALABAMA...

CITY           SKY/WX    TMP DP  RH WIND       PRES   REMARKS
MUSCLE SHOALS  CLOUDY    52  44  74 N14G24    29.92R


...MIDDLE TENNESSEE...

CITY           SKY/WX    TMP DP  RH WIND       PRES   REMARKS
NASHVILLE      LGT RAIN  45  42  89 N8G20     29.96R
CLARKSVILLE    LGT RAIN  43  40  89 N8        29.97R
COLUMBIA       CLOUDY   N/A N/A N/A N13       29.92S


...WESTERN KENTUCKY...

CITY           SKY/WX    TMP DP  RH WIND       PRES   REMARKS
PADUCAH        MOSUNNY   44  35  70 N10       30.01S
FORT CAMPBELL  DRIZZLE   43  39  86 N5        29.97R


...CENTRAL ARKANSAS...

CITY           SKY/WX    TMP DP  RH WIND       PRES   REMARKS
LITTLE ROCK    MOSUNNY   57  36  45 N10       30.04R


SKY/WX REPORTED AS FAIR MEANS FEW OR NO CLOUDS BELOW
12 THOUSAND FEET.




USA.gov is the U.S. government's official web portal to all federal, state and local government web resources and services.